• MPC Preparation (Info)

  • MPEC 2017-U63 : 2017 UU

    The following Minor Planet Electronic Circular may be linked-to from your own Web pages, but must not otherwise be redistributed electronically.

    A form allowing access to any MPEC is at the bottom of this page.


    Read MPEC 2017-U62 Read MPEC 2017-U64


    M.P.E.C. 2017-U63                                Issued 2017 Oct. 19, 02:05 UT
    
         The Minor Planet Electronic Circulars contain information on unusual
             minor planets and routine data on comets.  They are published
        on behalf of Division F of the International Astronomical Union by the
              Minor Planet Center, Smithsonian Astrophysical Observatory,
                              Cambridge, MA 02138, U.S.A.
    
                 Prepared using the Tamkin Foundation Computer Network
    
                                  MPC@CFA.HARVARD.EDU
                URL https://www.minorplanetcenter.net/    ISSN 1523-6714
    
                                        2017 UU
    
    Observations:
         K17U00U* C2017 10 17.29309 01 14 19.40 +00 48 55.8          19.6 GUEU063703
         K17U00U  C2017 10 17.29869 01 14 25.65 +00 51 34.5          18.2 GUEU063703
         K17U00U  C2017 10 17.30420 01 14 31.92 +00 54 06.9          19.5 GUEU063703
         K17U00U  C2017 10 17.30961 01 14 37.88 +00 56 36.1          18.9 GUEU063703
         K17U00U  C2017 10 17.35503 01 15 28.31 +01 17 29.6          19.1 GUEU063I52
         K17U00U  C2017 10 17.35557 01 15 28.91 +01 17 44.6          19.3 GUEU063I52
         K17U00U  C2017 10 17.35612 01 15 29.51 +01 17 59.6          19.0 GUEU063I52
         K17U00U  C2017 10 17.35666 01 15 30.12 +01 18 14.3          18.9 GUEU063I52
         K17U00U KC2017 10 17.90470 01 25 59.78 +05 11 11.7          19.4  UEU063104
         K17U00U KC2017 10 17.90816 01 26 03.16 +05 12 34.8          19.5  UEU063104
         K17U00U KC2017 10 17.91164 01 26 06.54 +05 13 57.3          19.5  UEU063104
         K17U00U KC2017 10 17.95109 01 26 44.66 +05 29 30.5          19.1  tEU063K63
         K17U00U KC2017 10 17.95401 01 26 47.48 +05 30 39.0          18.8  tEU063K63
         K17U00U KC2017 10 17.96128 01 26 54.46 +05 33 30.0          19.2  tEU063K63
         K17U00U KC2017 10 18.25343701 31 46.76 +07 23 39.0          20.5 VuEU063H21
         K17U00U KC2017 10 18.25625501 31 49.25 +07 24 40.1          19.7 VuEU063H21
         K17U00U KC2017 10 18.25925501 31 51.89 +07 25 45.0          19.8 VuEU063H21
         K17U00U KC2017 10 18.30709 01 32 35.84 +07 42 57.2          19.5 RqEU063H36
         K17U00U KC2017 10 18.31152 01 32 39.64 +07 44 31.7          19.2 RqEU063H36
         K17U00U KC2017 10 18.31655 01 32 44.06 +07 46 17.0          19.4 RqEU063H36
         K17U00U KC2017 10 18.33172 01 32 57.15 +07 51 38.5          19.4 RqEU063H36
         K17U00U KC2017 10 18.57288 01 36 47.51 +09 19 27.9          19.7 VqEU063E23
         K17U00U KC2017 10 18.58330 01 36 55.93 +09 22 54.2                qEU063E23
         K17U00U KC2017 10 18.59372 01 37 04.32 +09 26 19.8          19.9 VqEU063E23
         K17U00U tC2017 10 18.79146 01 40 09.43 +10 24 01.8          19.5 RqEU063246
         K17U00U tC2017 10 18.79199 01 40 09.99 +10 24 11.4          19.4 RqEU063246
         K17U00U KC2017 10 18.85585 01 41 00.41 +10 44 14.3          18.8  oEU063K88
         K17U00U KC2017 10 18.86036 01 41 03.95 +10 45 38.7          19.0  oEU063K88
         K17U00U KC2017 10 18.96310 01 42 24.59 +11 17 04.1          19.9  tEU063K63
         K17U00U KC2017 10 18.96504 01 42 26.06 +11 17 39.8          19.6  tEU063K63
         K17U00U KC2017 10 18.96698 01 42 27.49 +11 18 14.8          19.7  tEU063K63
    
    Observer details:
    104 San Marcello Pistoiese.  Observers P. Bacci, M. Maestripieri.  Measurers
        P. Bacci, L. Tesi, G. Fagioli.  0.60-m reflector + CCD.
    246 Klet Observatory-KLENOT.  Observers M. Tichy, J. Ticha.  Measurer M. Tichy.
        1.06-m KLENOT Telescope + CCD.
    703 Catalina Sky Survey.  Observer D. C. Fuls.  Measurers E. J. Christensen,
        D. C. Fuls, A. R. Gibbs, A. D. Grauer, J. A. Johnson, R. A. Kowalski,
        S. M. Larson, G. J. Leonard, R. G. Matheny, R. L. Seaman, F. C. Shelly.
        0.68-m Schmidt + 10K CCD.
    E23 Arcadia.  Observer A. Hidas.  0.35-m f/1.9 reflector + CCD.
    H21 Astronomical Research Observatory, Westfield.  Observer R. Holmes.
        Measurers S. Foglia, L. Buzzi, T. Linder, R. Holmes.  0.76-m f/3.0
        astrograph + CCD.
    H36 Sandlot Observatory, Scranton.  Observer G. Hug.  0.56-m reflector + CCD.
    I52 Steward Observatory, Mt. Lemmon Station.  Observer R. G. Matheny.
        Measurers E. J. Christensen, D. C. Fuls, A. R. Gibbs, A. D. Grauer,
        J. A. Johnson, R. A. Kowalski, S. M. Larson, G. J. Leonard, R. G. Matheny,
        R. L. Seaman, F. C. Shelly.  1.0-m reflector + CCD.
    K63 G. Pascoli Observatory, Castelvecchio Pascoli.  Observer R. Bacci.  0.40-m
        f/3.2 Newtonian reflector + CCD.
    K88 GINOP-KHK, Piszkesteto.  Observer K. Sarneczky.  0.60-m Schmidt + CCD.
    
    Orbital elements:
    2017 UU                                                  Earth MOID = 0.0167 AU
    Epoch 2017 Sept. 4.0 TT = JDT 2458000.5                 MPC
    M 354.44687              (2000.0)            P               Q
    n   0.29027672     Peri.  328.30261     +0.99274697     +0.11134986
    a   2.2590608      Node    25.42197     -0.07578494     +0.87230639
    e   0.5682704      Incl.    6.06124     -0.09332791     +0.47611215
    P   3.40           H   26.7           G   0.15           U   7
    Residuals in seconds of arc
    171017 703  0.6-  0.4-    171017 K63  0.3-  0.2-    171018 E23  0.4+  0.0
    171017 703 (0.6-  2.2+)   171017 K63  0.0   0.4-    171018 E23  0.1-  0.4-
    171017 703  1.3+  1.3+    171017 K63  0.3+  0.0     171018 246  0.9-  0.5+
    171017 703  0.3+  0.1+    171018 H21  0.1+  0.0     171018 246  0.9+  0.1+
    171017 I52  0.2-  0.2-    171018 H21  0.1+  0.0     171018 K88  0.3-  0.1-
    171017 I52  0.1-  0.1-    171018 H21  0.1-  0.0     171018 K88  0.1-  0.6+
    171017 I52  0.3-  0.1-    171018 H36  0.7+  1.1+    171018 K63  0.1-  1.2-
    171017 I52  0.1-  0.3-    171018 H36  0.5-  1.2+    171018 K63  0.1+  0.3-
    171017 104  0.5-  0.7-    171018 H36  0.3-  0.5-    171018 K63  0.2-  0.1-
    171017 104  0.3-  0.1-    171018 H36 (3.2-  0.7-)
    171017 104  0.3-  0.4-    171018 E23  0.7+  0.4+
    
    Ephemeris:
    2017 UU                  a,e,i = 2.26, 0.57, 6                   q = 0.9753
    Date    TT    R. A. (2000) Decl.     Delta      r     Elong.  Phase     V
    2017 09 19    16 08 29.3 -46 42 43   0.1454  0.9768    74.9    96.9    25.9
    ...
    2017 10 04    17 20 58.6 -53 11 18   0.06387 0.9857    74.9   101.5    24.4
    ...
    2017 10 12    21 40 12.5 -50 22 39   0.02632 1.0060   106.9    71.7    21.3
    ...
    2017 10 18    01 27 34.0 +05 51 07   0.03140 1.0277   176.2     3.6    19.6
    2017 10 19    01 42 54.1 +11 30 02   0.03575 1.0318   177.4     2.5    19.8
    2017 10 20    01 55 10.6 +15 50 13   0.04052 1.0361   173.1     6.6    20.3
    ...
    2017 10 26    02 35 11.5 +28 16 05   0.07328 1.0642   162.2    16.6    22.0
    ...
    2017 11 03    02 54 43.6 +33 05 18   0.1217  1.1079   161.2    16.8    23.2
    ...
    2017 11 18    03 06 40.2 +34 44 49   0.2240  1.2049   163.4    13.6    24.6
    
    A. U. Tomatic                (C) Copyright 2017 MPC           M.P.E.C. 2017-U63
    

    Read MPEC 2017-U62 Read MPEC 2017-U64


    MPEC number:

    Enter an MPEC number in one of the following forms:

    • 1997-B01 (the full form)
    • J97B01 (the packed version of the full form)
    • B01 (the abbreviated form)